CST,Max TemperatureF,Mean TemperatureF,Min TemperatureF,Max Dew PointF,MeanDew PointF,Min DewpointF,Max Humidity, Mean Humidity, Min Humidity, Max Sea Level PressureIn, Mean Sea Level PressureIn, Min Sea Level PressureIn, Max VisibilityMiles, Mean VisibilityMiles, Min VisibilityMiles, Max Wind SpeedMPH, Mean Wind SpeedMPH, Max Gust SpeedMPH,PrecipitationIn, CloudCover, Events, WindDirDegrees
2013-11-1,46,41,36,40,37,33,99,85,66,29.79,29.57,29.36,10,9,2,12,7,22,0.01,8,Rain,278
2013-11-2,45,34,24,34,31,24,99,80,58,30.15,29.99,29.79,10,10,10,10,5,16,0.00,5,,302
2013-11-3,51,35,19,33,27,19,99,72,42,30.23,30.16,30.08,10,10,10,18,4,26,0.00,0,,142
2013-11-4,50,47,44,46,38,31,97,73,57,30.17,30.04,29.96,10,9,3,16,8,24,0.01,5,Rain,172
2013-11-5,48,39,30,44,39,31,100,96,67,30.26,30.10,29.82,10,4,0,10,2,,0.90,7,Fog-Rain,48
2013-11-6,43,34,26,41,29,17,99,76,37,30.17,29.99,29.80,10,9,2,17,9,26,0.27,4,Rain,311
2013-11-7,37,28,19,29,25,19,100,88,71,30.24,30.20,30.16,10,10,7,8,2,16,0.00,4,,271
2013-11-8,44,29,14,36,25,14,99,75,47,30.24,30.05,29.70,10,10,7,20,4,30,0.04,4,Rain,153
2013-11-9,46,42,37,38,33,25,79,65,53,30.12,29.87,29.68,10,10,10,22,10,36,0.00,8,,262
2013-11-10,46,41,36,29,27,25,68,58,44,30.33,30.22,30.09,10,10,10,14,8,22,0.00,6,,262
2013-11-11,41,30,18,34,20,9,99,67,50,30.64,30.33,30.06,10,9,2,17,7,22,0.05,4,Rain-Snow,322
2013-11-12,27,20,13,14,10,8,88,66,46,30.75,30.66,30.52,10,10,10,10,4,,0.00,0,,282
2013-11-13,45,28,11,24,16,9,90,54,35,30.52,30.20,29.98,10,10,10,15,5,25,0.00,0,,214
2013-11-14,48,38,27,31,24,16,87,54,41,29.97,29.88,29.82,10,10,10,9,5,,0.00,2,Rain,219
2013-11-15,54,36,19,34,29,19,99,74,44,29.91,29.85,29.79,10,10,10,10,2,,0.00,0,,178
2013-11-16,59,50,41,55,44,32,95,83,62,29.79,29.54,29.33,10,8,2,20,10,26,0.23,7,Rain-Thunderstorm,173
2013-11-17,50,42,35,50,40,28,100,89,68,29.73,29.44,29.28,10,7,0,22,5,32,0.28,6,Fog-Rain,274
2013-11-18,34,24,15,27,22,14,97,73,60,30.27,30.04,29.75,10,10,10,20,12,30,0.00,5,,295
2013-11-19,42,27,12,26,19,10,97,69,39,30.32,30.23,30.12,10,10,10,15,3,22,0.00,1,,139
2013-11-20,39,36,32,35,28,22,100,74,51,30.12,30.08,30.02,10,8,1,14,9,22,0.13,8,Rain-Snow,152
2013-11-21,39,34,29,38,35,29,100,95,86,30.35,30.19,30.07,10,5,0,13,2,18,0.06,8,Fog-Snow,332
2013-11-22,32,28,23,28,18,10,96,70,43,30.53,30.47,30.36,10,9,2,13,8,22,0.01,3,Snow,292
2013-11-23,23,12,0,16,2,-4,86,65,46,30.73,30.67,30.46,10,10,7,21,10,28,0.00,2,Snow,315
2013-11-24,26,12,-2,6,0,-6,86,58,32,30.70,30.47,30.15,10,10,10,13,3,24,0.00,0,,206
2013-11-25,37,30,24,26,19,3,80,62,37,30.13,30.01,29.95,10,10,10,13,8,23,0.00,7,Snow,240
2013-11-26,35,24,12,24,10,0,87,58,40,30.29,30.14,30.00,10,10,0,21,10,30,0.00,5,Snow,312
2013-11-27,26,14,1,13,7,-2,88,65,47,30.32,30.25,30.15,10,10,10,7,2,,0.00,3,,293
2013-11-28,30,20,9,15,12,7,89,60,47,30.51,30.27,30.10,10,10,10,12,5,17,0.00,6,,310
2013-11-29,32,17,2,19,11,-1,89,71,49,30.57,30.46,30.26,10,10,10,12,3,18,0.00,0,,170
2013-11-30,44,36,27,26,24,19,88,67,48,30.25,30.09,30.01,10,10,10,8,4,,0.00,3,,227